Temp
-17 -18 -18 -18 -17 -18 -18 -18 -19 -19 -19 -20 -20 -20 -20 -20 -19 -19 -19 -19 -19 -19 -18 -19 -19 -18 -18 -18 -19 -19 -18 -18 -17 -17 -17 -18 -17 -18 -16 -16 -16 -16 -16 -15
-17 -18 -18 -17 -17 -18 -18 -18 -18 -18 -19 -19 -20 -20 -20 -19 -19 -19 -19 -19 -19 -19 -18 -18 -18 -18 -18 -18 -18 -18 -17 -18 -18 -18 -17 -17 -17 -16 -16 -15 -15 -16 -16 -16
-17 -17 -17 -18 -17 -17 -17 -18 -18 -18 -19 -18 -19 -19 -19 -19 -19 -19 -19 -19 -18 -18 -18 -18 -18 -18 -18 -18 -17 -18 -17 -17 -17 -18 -17 -17 -16 -15 -16 -16 -16 -16 -17 -17
-18 -17 -17 -18 -18 -18 -18 -18 -18 -18 -18 -18 -18 -18 -19 -19 -19 -19 -19 -19 -19 -18 -18 -17 -18 -18 -18 -18 -18 -18 -17 -18 -18 -18 -17 -17 -16 -17 -16 -16 -17 -17 -17 -17
-18 -18 -17 -18 -18 -18 -17 -18 -18 -18 -18 -18 -18 -18 -18 -19 -19 -19 -19 -19 -18 -18 -18 -18 -18 -17 -17 -18 -18 -18 -17 -18 -17 -17 -18 -17 -17 -16 -17 -17 -17 -17 -17 -17
-19 -18 -18 -18 -18 -18 -18 -18 -17 -17 -18 -18 -18 -18 -19 -18 -18 -19 -19 -19 -19 -19 -19 -18 -18 -18 -18 -17 -18 -17 -17 -17 -17 -17 -17 -17 -17 -17 -17 -18 -17 -17 -17 -17
-19 -18 -18 -18 -18 -18 -18 -17 -17 -17 -17 -18 -18 -18 -18 -19 -18 -18 -18 -18 -18 -18 -18 -18 -18 -18 -17 -17 -17 -17 -17 -17 -17 -17 -18 -18 -18 -18 -17 -18 -18 -17 -17 -18
-19 -18 -18 -18 -18 -18 -18 -18 -18 -17 -17 -17 -18 -18 -18 -18 -18 -18 -18 -18 -18 -18 -18 -18 -18 -18 -18 -18 -18 -18 -18 -17 -18 -18 -17 -17 -17 -17 -18 -18 -18 -18 -18 -18
-18 -18 -18 -18 -18 -18 -17 -18 -18 -17 -17 -17 -18 -18 -18 -18 -18 -18 -18 -18 -18 -18 -18 -18 -18 -18 -18 -18 -17 -17 -17 -17 -17 -18 -18 -17 -17 -18 -18 -18 -18 -18 -18 -18
-18 -18 -18 -19 -18 -18 -18 -18 -18 -18 -18 -17 -18 -17 -17 -18 -18 -18 -18 -18 -18 -18 -18 -18 -18 -18 -18 -18 -18 -17 -18 -18 -18 -18 -18 -18 -18 -18 -18 -18 -18 -18 -18 -19
-18 -18 -18 -18 -18 -18 -18 -18 -19 -18 -18 -18 -18 -18 -18 -18 -18 -17 -18 -18 -18 -18 -18 -18 -18 -18 -18 -18 -18 -18 -18 -18 -18 -18 -18 -18 -18 -18 -18 -18 -19 -19 -19 -19
-18 -18 -18 -18 -18 -18 -18 -18 -18 -19 -18 -18 -18 -18 -18 -18 -18 -18 -18 -18 -18 -18 -18 -18 -18 -18 -18 -18 -18 -18 -18 -18 -18 -18 -18 -18 -18 -19 -19 -19 -20 -20 -20 -20
-18 -19 -18 -18 -18 -18 -18 -18 -18 -19 -19 -18 -18 -18 -18 -18 -18 -18 -18 -18 -18 -18 -18 -18 -18 -18 -18 -18 -18 -18 -18 -18 -18 -18 -19 -19 -19 -19 -20 -20 -20 -20 -21 -21
-19 -19 -19 -19 -19 -18 -18 -18 -18 -19 -19 -19 -18 -19 -19 -18 -18 -18 -18 -18 -18 -18 -18 -18 -18 -18 -18 -18 -18 -19 -19 -19 -19 -19 -19 -19 -20 -20 -20 -20 -20 -21 -21 -21
-19 -19 -19 -20 -19 -19 -19 -18 -19 -19 -19 -19 -19 -19 -19 -19 -19 -19 -19 -19 -18 -18 -18 -19 -19 -19 -19 -19 -19 -19 -19 -19 -19 -20 -20 -20 -20 -21 -21 -21 -21 -22 -22 -22
-20 -19 -18 -18 -19 -19 -19 -19 -19 -19 -20 -20 -19 -19 -19 -20 -20 -19 -19 -19 -19 -19 -19 -19 -19 -19 -19 -19 -19 -19 -19 -20 -20 -20 -20 -21 -21 -21 -22 -22 -22 -22 -22 -22
-19 -19 -20 -19 -19 -19 -19 -20 -19 -20 -20 -20 -20 -19 -20 -20 -20 -20 -20 -20 -20 -19 -19 -19 -19 -19 -19 -19 -20 -20 -20 -20 -20 -21 -21 -21 -22 -22 -22 -22 -23 -23 -23 -23
-22 -21 -21 -19 -19 -20 -20 -19 -19 -20 -20 -20 -20 -20 -20 -20 -20 -20 -20 -20 -20 -20 -20 -20 -20 -20 -20 -20 -20 -20 -20 -20 -21 -21 -22 -22 -22 -23 -23 -23 -23 -23 -23 -23
-25 -24 -24 -22 -21 -21 -20 -20 -20 -20 -20 -20 -20 -20 -20 -20 -21 -20 -20 -20 -20 -20 -20 -20 -20 -20 -20 -20 -21 -21 -21 -21 -22 -22 -22 -23 -23 -23 -23 -23 -23 -24 -24 -24
-25 -25 -25 -24 -23 -21 -21 -20 -20 -21 -20 -20 -20 -20 -20 -21 -21 -21 -21 -21 -21 -21 -21 -20 -20 -20 -20 -21 -21 -21 -22 -22 -23 -23 -23 -23 -23 -24 -24 -24 -24 -24 -24 -24
-25 -25 -25 -25 -24 -22 -22 -22 -22 -22 -21 -21 -20 -20 -22 -22 -22 -21 -21 -21 -21 -21 -21 -21 -21 -21 -21 -21 -22 -22 -22 -23 -24 -24 -24 -24 -24 -24 -24 -24 -24 -24 -24 -24
-26 -25 -25 -24 -25 -25 -24 -24 -23 -22 -22 -21 -21 -22 -22 -22 -22 -22 -22 -22 -21 -21 -21 -22 -22 -22 -22 -22 -22 -23 -24 -24 -24 -24 -24 -24 -24 -24 -24 -25 -25 -24 -24 -25
-26 -26 -25 -25 -24 -24 -25 -24 -23 -22 -22 -22 -22 -22 -22 -22 -22 -22 -22 -22 -22 -22 -22 -22 -22 -22 -23 -23 -24 -24 -24 -24 -25 -25 -25 -25 -24 -25 -25 -25 -25 -25 -25 -26
-25 -26 -26 -25 -24 -23 -23 -23 -23 -22 -22 -22 -22 -22 -22 -22 -22 -22 -22 -22 -22 -23 -23 -23 -23 -23 -24 -24 -24 -24 -25 -25 -25 -25 -25 -25 -25 -25 -25 -25 -25 -26 -27 -28
-25 -25 -24 -25 -24 -23 -23 -23 -23 -22 -22 -22 -22 -22 -23 -23 -23 -23 -23 -23 -23 -23 -23 -23 -23 -24 -24 -24 -25 -25 -25 -25 -25 -25 -25 -25 -25 -25 -25 -26 -27 -27 -28 -29
-24 -24 -24 -23 -23 -23 -23 -23 -23 -23 -23 -23 -23 -23 -23 -23 -23 -23 -23 -23 -23 -23 -24 -24 -24 -24 -25 -25 -25 -25 -25 -25 -25 -25 -25 -25 -25 -26 -26 -27 -28 -29 -30 -30
-24 -24 -24 -24 -24 -24 -24 -24 -24 -24 -24 -24 -24 -24 -24 -24 -24 -23 -24 -24 -24 -24 -24 -25 -25 -25 -25 -25 -25 -25 -25 -25 -25 -25 -25 -26 -26 -27 -28 -29 -29 -29 -29 -30
Height
5664 5659 5656 5651 5646 5640 5633 5627 5620 5613 5604 5597 5593 5590 5588 5588 5588 5588 5589 5589 5589 5590 5590 5591 5590 5588 5591 5595 5603 5610 5618 5623 5631 5637 5644 5652 5658 5662 5665 5666 5670 5673 5673 5674
5663 5656 5654 5650 5644 5640 5634 5628 5622 5615 5608 5601 5597 5594 5591 5591 5590 5590 5590 5590 5591 5591 5589 5589 5587 5588 5589 5592 5598 5604 5606 5623 5628 5635 5642 5649 5655 5660 5663 5663 5663 5667 5666 5666
5657 5653 5651 5648 5643 5638 5633 5628 5623 5618 5612 5606 5602 5599 5596 5594 5593 5593 5593 5593 5592 5591 5588 5589 5589 5591 5594 5598 5603 5609 5616 5622 5627 5633 5641 5643 5650 5655 5656 5657 5659 5657 5657 5658
5648 5648 5648 5644 5640 5636 5632 5628 5624 5619 5615 5610 5606 5604 5601 5600 5597 5596 5596 5595 5594 5592 5590 5590 5591 5593 5597 5601 5605 5609 5614 5621 5625 5630 5636 5639 5644 5647 5649 5649 5649 5651 5651 5652
5640 5641 5643 5641 5637 5634 5630 5627 5623 5620 5617 5613 5610 5607 5606 5604 5603 5601 5600 5598 5597 5596 5595 5595 5595 5595 5598 5602 5605 5610 5614 5618 5623 5629 5633 5635 5640 5641 5643 5645 5646 5646 5645 5643
5634 5633 5635 5635 5632 5630 5627 5625 5621 5619 5616 5614 5612 5611 5608 5606 5605 5604 5603 5602 5601 5600 5599 5600 5600 5601 5600 5603 5607 5611 5614 5618 5621 5625 5628 5632 5634 5635 5637 5639 5639 5638 5636 5635
5625 5626 5630 5629 5627 5626 5624 5624 5618 5616 5614 5612 5611 5611 5610 5608 5606 5605 5604 5603 5603 5602 5603 5603 5603 5604 5606 5608 5609 5612 5615 5618 5621 5622 5625 5628 5631 5632 5632 5632 5631 5630 5629 5627
5619 5619 5622 5622 5622 5622 5620 5617 5615 5613 5612 5611 5610 5609 5608 5608 5607 5607 5606 5605 5605 5604 5604 5605 5606 5607 5609 5611 5612 5615 5617 5617 5620 5623 5624 5626 5626 5626 5626 5625 5624 5621 5618 5615
5612 5613 5614 5614 5615 5615 5615 5613 5611 5610 5609 5608 5607 5607 5606 5605 5605 5605 5605 5605 5606 5606 5606 5606 5607 5607 5608 5609 5610 5612 5614 5615 5616 5617 5618 5618 5618 5618 5618 5617 5615 5611 5610 5608
5601 5606 5606 5605 5606 5607 5609 5609 5608 5606 5604 5604 5604 5603 5602 5602 5602 5602 5602 5603 5603 5604 5604 5604 5605 5606 5607 5608 5608 5609 5611 5612 5612 5612 5612 5612 5612 5611 5609 5606 5605 5603 5600 5597
5590 5594 5596 5597 5597 5598 5601 5601 5602 5602 5601 5600 5599 5600 5599 5599 5599 5599 5599 5599 5599 5600 5601 5601 5601 5601 5602 5603 5603 5604 5604 5605 5605 5605 5604 5604 5603 5601 5600 5598 5596 5593 5590 5586
5578 5582 5584 5587 5587 5588 5592 5592 5595 5596 5596 5596 5595 5594 5594 5594 5595 5595 5596 5595 5595 5596 5596 5597 5598 5599 5599 5599 5600 5600 5600 5600 5599 5598 5598 5597 5596 5594 5592 5590 5586 5583 5578 5574
5563 5566 5569 5574 5578 5579 5583 5583 5586 5588 5590 5590 5590 5589 5588 5589 5590 5591 5591 5592 5592 5592 5593 5593 5593 5594 5594 5594 5594 5593 5593 5593 5593 5592 5591 5590 5588 5585 5582 5579 5575 5571 5566 5562
5543 5547 5554 5560 5564 5567 5571 5574 5577 5579 5582 5584 5585 5584 5583 5583 5584 5585 5586 5587 5587 5588 5588 5588 5588 5587 5587 5587 5587 5588 5588 5587 5586 5585 5583 5580 5578 5575 5572 5568 5564 5560 5555 5551
5521 5528 5536 5544 5549 5554 5558 5563 5566 5570 5573 5576 5577 5579 5578 5578 5578 5579 5581 5582 5583 5582 5582 5583 5583 5583 5583 5582 5582 5581 5580 5579 5577 5575 5573 5571 5568 5564 5561 5557 5553 5549 5544 5540
5501 5507 5516 5525 5532 5538 5544 5551 5555 5559 5564 5567 5570 5571 5573 5574 5574 5574 5575 5576 5577 5577 5577 5577 5576 5576 5575 5575 5574 5572 5571 5570 5568 5566 5563 5560 5557 5553 5549 5546 5542 5537 5532 5527
5478 5489 5493 5504 5514 5523 5529 5535 5542 5547 5552 5558 5561 5564 5566 5568 5568 5569 5569 5570 5570 5570 5570 5570 5570 5568 5567 5566 5565 5564 5562 5560 5558 5556 5553 5549 5546 5542 5538 5534 5529 5524 5519 5514
5460 5468 5473 5483 5493 5502 5510 5519 5527 5534 5541 5545 5550 5554 5557 5559 5561 5562 5562 5563 5563 5563 5563 5562 5561 5560 5559 5558 5556 5554 5552 5550 5547 5544 5541 5538 5534 5530 5526 5521 5516 5511 5506 5501
5446 5451 5457 5464 5473 5483 5493 5504 5513 5521 5529 5534 5539 5543 5546 5549 5552 5553 5554 5554 5555 5555 5554 5553 5553 5552 5550 5548 5547 5544 5541 5538 5536 5533 5530 5526 5522 5517 5513 5508 5503 5498 5493 5487
5434 5439 5444 5450 5458 5468 5478 5489 5500 5508 5517 5522 5528 5533 5536 5539 5541 5543 5544 5545 5545 5545 5544 5544 5542 5541 5539 5538 5536 5534 5531 5528 5525 5522 5518 5514 5510 5505 5501 5496 5491 5485 5480 5474
5423 5428 5433 5441 5448 5458 5469 5479 5490 5499 5506 5513 5519 5522 5526 5529 5531 5533 5534 5535 5535 5535 5535 5534 5532 5531 5529 5526 5524 5522 5519 5517 5513 5510 5506 5502 5497 5493 5488 5483 5477 5472 5466 5459
5414 5420 5422 5434 5443 5455 5466 5475 5483 5491 5499 5505 5509 5513 5516 5519 5521 5522 5523 5524 5524 5524 5523 5522 5521 5519 5517 5515 5512 5509 5507 5504 5501 5497 5494 5489 5484 5479 5474 5469 5464 5458 5451 5445
5415 5421 5427 5433 5443 5453 5462 5473 5480 5487 5493 5497 5501 5503 5507 5509 5512 5513 5514 5514 5513 5512 5512 5510 5509 5507 5505 5503 5500 5497 5494 5491 5488 5484 5480 5475 5470 5465 5460 5455 5449 5442 5436 5430
5418 5424 5431 5437 5445 5454 5462 5469 5475 5481 5485 5489 5493 5496 5500 5501 5502 5503 5504 5503 5502 5501 5500 5499 5497 5495 5493 5491 5488 5485 5481 5478 5474 5470 5465 5461 5456 5451 5445 5439 5433 5427 5420 5414
5423 5427 5433 5440 5448 5454 5460 5467 5472 5476 5480 5484 5487 5489 5490 5491 5493 5492 5492 5491 5490 5490 5488 5486 5485 5483 5481 5478 5475 5471 5468 5464 5460 5456 5451 5446 5440 5435 5429 5423 5417 5411 5406 5401
5427 5431 5436 5443 5449 5455 5460 5463 5467 5470 5474 5477 5479 5480 5481 5481 5481 5481 5480 5479 5478 5478 5476 5474 5473 5470 5467 5464 5461 5457 5453 5449 5445 5441 5435 5430 5425 5419 5413 5408 5402 5397 5393 5389
5434 5437 5441 5445 5449 5453 5456 5460 5463 5466 5468 5470 5471 5471 5471 5471 5471 5470 5469 5468 5467 5466 5464 5462 5459 5456 5452 5449 5447 5443 5439 5435 5430 5425 5419 5414 5408 5403 5398 5393 5389 5385 5381 5377
Wind_Speed
26 28 25 27 25 26 26 30 31 34 32 29 19 9 9 2 1 3 6 3 7 10 9 11 15 10 17 25 34 32 24 28 36 40 45 42 46 50 38 38 39 35 34 33
22 26 25 25 24 22 23 26 26 30 29 25 17 8 4 2 1 3 0 2 3 4 7 8 8 8 11 19 33 27 25 26 35 33 38 42 43 42 46 40 40 36 31 31
27 27 23 22 22 20 20 21 24 24 26 23 19 9 4 5 6 7 7 4 3 2 4 4 4 10 14 21 22 27 30 33 32 32 30 36 40 40 35 36 35 26 25 29
32 27 22 21 21 19 18 18 19 20 20 20 16 12 8 6 7 7 9 5 7 10 9 8 3 11 11 15 20 24 25 27 24 25 28 35 37 37 30 24 23 27 30 33
37 29 23 20 20 20 16 16 15 15 16 17 16 11 10 6 2 3 4 5 5 8 13 4 4 7 10 20 19 21 24 29 29 33 30 27 28 29 28 26 28 30 29 32
35 33 26 23 22 18 17 14 15 12 10 12 13 13 8 7 6 8 7 7 3 4 5 8 5 9 16 29 20 28 33 33 31 36 37 36 32 25 24 25 26 28 30 34
33 35 27 26 24 22 18 16 15 15 13 3 6 8 9 8 5 5 5 6 6 4 4 4 3 7 8 8 16 11 15 18 18 15 14 17 20 21 22 25 28 30 33 37
32 30 31 30 29 24 20 20 17 16 15 14 6 3 6 9 8 5 2 1 1 2 2 2 0 3 6 7 7 8 9 10 12 13 15 18 20 23 24 27 30 32 35 38
34 31 29 28 28 27 23 19 19 14 12 10 7 10 9 8 9 10 9 8 7 5 4 4 5 5 8 9 10 11 13 14 15 15 16 19 22 25 27 29 30 33 37 41
39 31 30 29 29 28 25 21 22 17 14 13 13 11 11 11 12 14 13 12 11 10 9 8 8 8 8 8 9 11 13 15 16 17 19 21 24 26 28 31 34 38 40 43
43 39 36 34 33 32 27 25 23 23 20 17 14 11 10 12 12 11 12 14 16 16 16 15 17 18 18 17 17 17 17 18 20 22 24 26 29 31 33 35 37 40 42 44
44 43 41 38 38 36 29 30 24 24 25 23 21 17 16 14 12 12 11 11 11 12 14 16 17 17 19 20 20 20 21 22 24 25 27 28 30 32 34 37 39 42 44 45
48 47 45 43 40 40 34 32 29 26 26 25 22 18 16 15 14 16 18 15 13 14 16 16 15 16 16 17 18 20 22 23 25 26 28 30 32 34 36 39 42 43 44 45
52 49 46 46 44 44 40 37 34 29 26 26 26 22 19 16 14 14 15 15 17 18 18 19 18 17 18 19 20 22 24 26 27 29 32 34 36 38 40 42 42 43 44 47
59 53 50 49 47 45 46 41 37 32 30 30 27 25 20 17 15 13 13 14 14 16 16 17 17 18 19 20 22 24 26 28 31 33 35 37 39 40 41 42 43 44 46 47
60 62 59 56 51 49 49 45 41 36 35 33 30 25 22 16 15 14 16 18 19 19 20 20 20 21 22 24 26 28 30 32 34 36 38 39 40 41 42 43 44 46 47 48
66 66 62 59 55 53 52 49 45 42 41 37 34 31 27 26 21 17 17 17 17 18 19 20 22 22 24 25 27 29 31 33 36 37 39 40 42 42 43 44 46 47 48 50
59 62 62 63 60 57 57 53 49 46 45 43 39 36 33 28 26 23 20 19 19 20 22 23 24 25 27 29 30 32 33 35 36 38 39 41 43 44 46 47 48 49 50 52
50 48 50 56 60 59 59 55 51 48 47 47 44 40 37 32 30 29 26 25 24 26 27 27 28 30 31 33 34 36 36 37 39 41 42 44 45 47 48 49 50 51 52 54
33 40 44 42 45 56 61 56 53 50 47 48 46 45 38 35 32 34 30 29 29 30 30 31 33 34 35 36 37 39 40 40 42 43 45 46 47 48 50 52 52 52 54 56
34 32 32 34 38 50 56 52 48 50 48 42 47 45 37 35 37 37 33 34 33 34 36 37 38 40 40 40 41 42 43 43 44 46 47 49 50 52 53 52 52 54 56 58
20 21 25 28 37 38 38 34 37 46 42 38 46 42 38 38 41 36 36 38 38 40 41 41 42 43 44 45 43 43 43 44 47 49 51 53 53 53 52 52 54 56 58 60
24 10 30 22 32 25 32 25 34 29 34 39 36 39 42 42 41 39 38 38 40 41 41 43 45 46 47 46 44 44 45 48 50 52 53 53 52 51 53 55 57 59 60 59
5 16 26 24 30 24 26 23 28 35 37 41 41 40 41 41 39 41 40 41 42 42 43 44 45 45 44 45 45 45 47 50 52 53 53 52 52 53 55 58 59 60 58 53
32 20 18 29 29 21 22 25 27 26 27 31 35 40 40 41 40 41 41 40 41 42 42 42 44 45 45 45 46 48 51 52 52 51 51 53 55 57 59 59 59 55 49 44
14 10 14 17 18 18 19 21 24 28 32 33 34 34 35 37 39 39 38 39 41 42 44 44 43 43 44 46 48 50 50 51 51 53 55 58 59 59 59 56 50 44 42 44
13 13 13 14 16 17 17 18 21 24 27 31 33 33 35 36 38 39 40 41 42 43 42 43 44 45 47 49 49 49 50 53 55 57 58 60 60 56 50 44 42 43 43 40
Wind_Direction
319 313 327 329 336 340 349 355 359 2 5 10 7 13 13 53 235 245 213 237 217 227 253 278 289 304 252 215 214 209 216 221 222 229 235 241 246 254 251 273 278 280 277 268
310 305 314 325 323 338 347 357 2 5 13 11 11 16 47 128 98 80 99 250 226 240 264 286 288 221 191 196 195 189 192 206 215 220 230 239 245 247 259 264 271 264 253 276
299 301 311 315 323 329 340 355 0 8 14 21 17 26 62 87 71 60 66 59 68 355 246 0 113 183 187 195 192 203 207 206 211 212 208 238 238 240 250 254 249 249 263 271
289 296 304 309 319 319 327 341 356 5 14 23 29 21 32 41 77 89 98 52 67 37 75 48 343 189 185 190 189 184 188 191 206 205 221 234 237 245 237 245 264 266 268 273
281 292 294 305 309 313 314 323 334 354 5 20 21 32 14 7 19 83 99 56 101 63 65 105 128 170 228 185 181 205 203 190 207 216 231 230 235 239 253 249 258 263 273 282
275 281 293 301 301 305 310 302 324 325 354 10 25 21 34 32 13 21 29 21 38 69 50 69 120 155 167 195 208 198 195 211 225 223 235 238 245 239 251 263 272 277 283 287
274 271 284 293 290 291 301 297 300 316 310 331 1 15 5 4 25 13 350 1 354 10 21 5 76 137 154 169 175 182 182 195 205 216 228 239 251 258 265 272 277 282 287 289
272 276 278 282 289 285 288 299 294 295 314 310 300 304 330 336 338 338 352 69 52 27 357 356 278 201 202 212 229 234 228 232 238 242 248 255 262 267 273 280 284 289 294 297
261 266 270 275 279 279 286 290 295 285 286 297 296 291 288 283 294 309 314 314 305 292 273 256 243 233 231 236 228 234 243 249 255 263 267 275 278 279 279 283 288 294 294 293
259 260 264 265 266 274 280 289 290 278 269 275 284 262 253 266 267 270 276 283 290 295 297 299 296 286 275 270 268 269 271 273 276 278 278 274 274 279 284 289 291 291 293 296
256 256 258 261 262 261 269 270 273 277 274 267 250 248 259 269 273 272 275 272 272 275 279 285 291 293 292 290 289 287 284 282 280 279 280 283 285 288 289 289 291 293 295 297
256 255 253 254 256 258 257 261 264 271 271 278 254 244 246 245 255 260 261 259 262 264 271 279 283 284 284 282 280 279 279 279 280 282 284 286 287 288 290 292 294 296 298 301
252 247 248 250 253 256 253 252 255 260 268 272 251 246 240 241 242 248 254 259 254 248 253 260 264 266 271 276 280 282 284 285 285 286 287 288 291 294 296 296 297 298 300 302
253 248 245 245 246 248 250 249 249 250 254 253 256 248 240 241 246 253 257 258 260 264 268 270 272 275 278 281 283 285 286 289 291 293 294 295 295 295 295 297 298 299 300 301
252 247 246 242 242 243 244 244 244 244 244 246 251 248 237 234 234 239 251 261 264 266 268 271 276 280 283 286 288 289 290 293 294 294 293 294 295 297 298 298 299 299 299 301
247 250 246 245 240 238 239 240 240 237 241 241 243 241 241 230 234 243 255 266 275 280 278 279 280 282 284 289 292 295 296 296 296 297 297 298 299 299 299 299 298 300 303 305
245 245 245 243 238 231 234 234 235 233 234 235 241 243 238 249 265 264 263 267 269 275 279 284 287 288 290 292 294 296 298 300 300 300 299 299 299 298 299 299 301 303 305 306
244 242 241 238 235 227 228 230 229 228 228 232 232 238 244 247 255 260 258 271 270 276 280 282 286 290 292 294 295 296 298 299 300 300 299 299 299 299 300 301 302 303 304 306
248 244 242 240 232 224 225 224 223 222 224 230 232 231 241 243 251 260 267 266 273 282 283 283 286 289 291 294 296 297 298 299 300 300 300 300 300 299 300 301 301 302 304 306
251 246 243 238 232 221 219 220 220 217 221 229 234 235 231 237 245 256 263 272 274 280 279 280 284 286 288 291 294 296 299 301 300 300 299 299 299 300 300 301 301 302 304 306
247 241 239 238 224 217 218 217 217 217 223 231 235 231 228 233 242 254 262 265 269 275 277 279 282 284 286 289 292 295 297 298 298 298 298 299 301 301 301 301 302 303 304 305
233 228 201 208 210 215 204 208 217 217 223 234 231 228 229 236 246 254 255 263 271 275 273 277 283 287 288 290 291 293 296 297 297 298 299 301 301 300 301 301 302 303 304 305
157 151 169 163 173 178 205 205 211 216 226 226 223 228 236 245 253 255 260 271 272 271 273 279 284 288 290 291 292 293 294 295 296 298 298 298 298 299 301 301 302 303 304 305
166 155 181 181 162 179 187 192 203 215 223 227 232 239 254 253 255 263 269 271 271 275 279 284 288 290 291 291 292 295 296 297 298 298 298 297 299 300 299 300 301 302 304 305
150 162 162 179 184 190 196 208 217 214 226 242 250 249 249 258 262 267 270 274 280 284 287 288 289 289 291 293 295 296 296 295 296 296 296 297 298 298 300 301 302 303 303 303
161 148 157 168 173 192 208 215 222 231 239 245 252 255 260 266 269 272 279 283 284 286 286 288 290 291 292 294 294 294 295 294 294 295 296 297 298 299 300 301 301 301 302 302
120 131 145 165 181 195 211 225 236 243 248 252 257 262 268 273 276 278 280 282 284 284 286 288 290 291 292 293 293 293 293 293 294 295 297 297 298 300 300 300 300 301 302 302